CW2798 Aduanas ES current weather conditions

sailwx.info

Wind from 247 at 0 knots gusting 2

Air temperature 12.2° C
Dewpoint 9.4° C

Last reported at 2017-Apr-24 00:45 UTC.
Time now 2017-Apr-24 01:36 UTC

Location: N 38°48' E 000°11'.
View on Google Maps.

See reports from other nearby stations

  
Tides and Currents Weather Stations Pressure Air Temp Water Temp Dewpoint Dewpoint Depression Visibility Wind Speed Wind Dir Waves Ship Positions
date/time (UTC)wind fromknots sea level pressurealtimeterstation pressurevisibilityair tempwater tempwave heightnotes
2017-Apr-24 00:45 247 0 gusting 2 12.2
2017-Apr-24 00:30 252 2 gusting 2 12.2
2017-Apr-24 00:00 239 2 gusting 3 12.8
2017-Apr-23 23:30 245 1 gusting 3 11.7
2017-Apr-23 22:45 245 0 gusting 2 12.8
2017-Apr-23 22:15 247 13.3
2017-Apr-23 21:30 249 0 gusting 2 13.9
2017-Apr-23 20:45 14.4
2017-Apr-23 20:30 15.0
2017-Apr-23 20:15 15.0
2017-Apr-23 19:45 16.1
2017-Apr-23 19:30 198 1 gusting 2 16.1
2017-Apr-23 19:15 152 0 gusting 1 16.1
2017-Apr-23 18:45 173 1 gusting 3 16.1
2017-Apr-23 17:45 132 2 gusting 6 17.2
2017-Apr-23 17:30 109 4 gusting 6 17.2
2017-Apr-23 17:15 119 3 gusting 6 17.2
2017-Apr-23 17:00 115 3 gusting 6 17.2
2017-Apr-23 16:45 112 4 gusting 7 17.2
2017-Apr-23 16:00 112 4 gusting 6 17.2
2017-Apr-23 15:30 112 3 gusting 6 17.2
2017-Apr-23 14:45 084 3 gusting 6 17.8
2017-Apr-23 14:30 078 3 gusting 6 17.2
2017-Apr-23 14:00 075 3 gusting 7 17.2
2017-Apr-23 13:45 075 3 gusting 6 17.2
2017-Apr-23 13:30 087 4 gusting 6 17.2
2017-Apr-23 12:00 078 2 gusting 6 17.2
2017-Apr-23 10:45 027 3 gusting 6 16.7
2017-Apr-23 10:30 013 2 gusting 6 16.7
2017-Apr-23 10:15 061 2 gusting 6 16.7
2017-Apr-23 10:00 040 1 gusting 2 16.7
2017-Apr-23 09:45 025 1 gusting 3 16.7
2017-Apr-23 08:15 306 2 gusting 4 15.6
2017-Apr-23 07:45 001 1 gusting 4 16.1
2017-Apr-23 07:00 275 1 gusting 4 14.4
2017-Apr-23 06:45 240 2 gusting 5 13.9
2017-Apr-23 05:45 243 2 gusting 3 11.7
2017-Apr-23 05:30 259 3 gusting 6 12.2
2017-Apr-23 05:15 255 2 gusting 6 11.7
2017-Apr-23 04:30 258 3 gusting 6 12.8
2017-Apr-23 04:00 313 3 gusting 9 12.8
2017-Apr-23 03:45 294 1 gusting 8 11.7
2017-Apr-23 03:30 300 0 gusting 4 11.7
2017-Apr-23 03:15 255 0 gusting 2 11.1
2017-Apr-23 02:45 259 0 gusting 2 12.2
2017-Apr-23 02:30 274 1 gusting 3 12.8
2017-Apr-23 02:15 298 11.1
2017-Apr-23 01:15 237 2 gusting 3 11.1
2017-Apr-23 01:00 12.2
2017-Apr-23 00:45 235 1 gusting 2 11.7
2017-Apr-23 00:15 238 2 gusting 3 11.7
2017-Apr-23 00:00 285 0 gusting 1 11.7
2017-Apr-22 23:30 254 0 gusting 2 12.2
2017-Apr-22 22:45 243 0 gusting 2 12.8
2017-Apr-22 22:15 242 12.2
2017-Apr-22 22:00 242 2 gusting 2 12.2
2017-Apr-22 21:30 254 13.9
2017-Apr-22 21:00 248 0 gusting 1 13.9
2017-Apr-22 20:45 249 1 gusting 2 13.9
2017-Apr-22 20:30 307 14.4
2017-Apr-22 20:00 15.0
2017-Apr-22 18:45 062 0 gusting 1 15.6
2017-Apr-22 18:30 054 2 gusting 4 15.6
2017-Apr-22 18:15 065 0 gusting 4 15.6
2017-Apr-22 17:45 058 3 gusting 6 16.1
2017-Apr-22 17:15 063 3 gusting 5 16.1
2017-Apr-22 16:45 057 3 gusting 6 16.1
2017-Apr-22 16:15 063 2 gusting 5 16.1
2017-Apr-22 16:00 067 3 gusting 5 16.1
2017-Apr-22 15:45 074 3 gusting 6 16.1
2017-Apr-22 15:30 061 4 gusting 5 16.1
2017-Apr-22 14:45 059 3 gusting 8 16.7
2017-Apr-22 14:30 076 4 gusting 6 16.7
2017-Apr-22 14:00 073 4 gusting 5 16.7
2017-Apr-22 13:30 077 2 gusting 5 16.7
2017-Apr-22 12:45 077 3 gusting 5 16.7
2017-Apr-22 12:30 074 2 gusting 4 16.7
2017-Apr-22 12:15 060 4 gusting 6 16.1
2017-Apr-22 12:00 057 3 gusting 6 16.7
2017-Apr-22 11:45 071 3 gusting 8 16.7
2017-Apr-22 11:30 063 2 gusting 4 16.1
2017-Apr-22 10:30 078 2 gusting 5 16.1
2017-Apr-22 09:30 060 2 gusting 6 16.1
2017-Apr-22 09:15 074 2 gusting 4 15.6
2017-Apr-22 08:30 110 2 gusting 6 15.6
2017-Apr-22 08:15 066 3 gusting 8 15.6
2017-Apr-22 08:00 066 3 gusting 4 15.0
2017-Apr-22 07:45 066 3 gusting 6 15.0
2017-Apr-22 07:30 090 3 gusting 6 15.0
2017-Apr-22 07:15 089 4 gusting 6 15.0
2017-Apr-22 07:00 066 3 gusting 6 15.0
2017-Apr-22 06:15 252 0 gusting 2 10.6
2017-Apr-22 06:00 230 2 gusting 3 10.0
2017-Apr-22 05:30 10.0
2017-Apr-22 04:45 300 0 gusting 1 10.0
2017-Apr-22 04:30 224 1 gusting 2 9.4
2017-Apr-22 04:00 237 10.0
2017-Apr-22 03:45 246 1 gusting 4 10.0
2017-Apr-22 03:30 272 10.6
2017-Apr-22 03:15 221 0 gusting 1 10.6
2017-Apr-22 03:00 199 0 gusting 1 10.6
2017-Apr-22 02:00 12.2
2017-Apr-22 01:45 244 0 gusting 4 13.9
2017-Apr-22 01:30 054 3 gusting 5 15.0
2017-Apr-22 01:00 054 5 gusting 9 15.0